TimeEST,TemperatureF,Dew PointF,Humidity,Sea Level PressureIn,VisibilityMPH,Wind Direction,Wind SpeedMPH,Gust SpeedMPH,PrecipitationIn,Events,Conditions,WindDirDegrees,DateUTC
12:24 AM,26.6,17.6,69,30.07,10.0,NNW,5.8,-,N/A,,Overcast,340,2013-03-03 05:24:00
12:53 AM,27.0,18.0,69,30.10,10.0,NNW,6.9,-,N/A,,Overcast,330,2013-03-03 05:53:00
1:53 AM,27.0,18.0,69,30.10,10.0,NNW,12.7,-,N/A,,Overcast,340,2013-03-03 06:53:00
2:53 AM,26.1,16.0,66,30.09,10.0,North,8.1,-,N/A,,Overcast,350,2013-03-03 07:53:00
3:53 AM,25.0,16.0,69,30.09,10.0,NNW,8.1,-,N/A,,Overcast,340,2013-03-03 08:53:00
4:53 AM,23.0,15.1,72,30.09,10.0,NNW,5.8,-,N/A,,Mostly Cloudy,340,2013-03-03 09:53:00
5:53 AM,21.9,15.1,75,30.09,10.0,NW,4.6,-,N/A,,Mostly Cloudy,320,2013-03-03 10:53:00
6:53 AM,21.0,14.0,74,30.10,10.0,NW,5.8,-,N/A,,Partly Cloudy,320,2013-03-03 11:53:00
7:53 AM,21.9,14.0,72,30.11,10.0,NW,5.8,-,N/A,,Mostly Cloudy,320,2013-03-03 12:53:00
8:53 AM,24.1,14.0,65,30.12,10.0,NNW,8.1,-,N/A,,Mostly Cloudy,340,2013-03-03 13:53:00
9:53 AM,26.1,15.1,63,30.12,10.0,North,8.1,-,N/A,,Overcast,10,2013-03-03 14:53:00
10:53 AM,27.0,17.1,66,30.11,10.0,North,10.4,-,N/A,,Overcast,350,2013-03-03 15:53:00
11:53 AM,28.0,18.0,66,30.10,10.0,North,12.7,-,N/A,,Overcast,350,2013-03-03 16:53:00
12:53 PM,30.0,17.1,59,30.09,10.0,NNW,12.7,-,N/A,,Overcast,330,2013-03-03 17:53:00
1:53 PM,30.9,17.1,57,30.07,10.0,WNW,12.7,21.9,N/A,,Mostly Cloudy,300,2013-03-03 18:53:00
2:53 PM,32.0,16.0,52,30.06,10.0,NW,8.1,-,N/A,,Mostly Cloudy,320,2013-03-03 19:53:00
3:53 PM,30.9,17.1,57,30.06,10.0,NW,11.5,18.4,N/A,,Partly Cloudy,310,2013-03-03 20:53:00
5:53 PM,28.9,14.0,54,30.07,10.0,WNW,12.7,-,N/A,,Clear,290,2013-03-03 22:53:00
6:53 PM,27.0,12.9,56,30.09,10.0,NW,8.1,-,N/A,,Clear,310,2013-03-03 23:53:00
7:53 PM,26.1,14.0,60,30.11,10.0,NW,8.1,-,N/A,,Clear,310,2013-03-04 00:53:00
8:53 PM,24.1,14.0,65,30.11,10.0,NW,5.8,-,N/A,,Clear,310,2013-03-04 01:53:00
9:53 PM,23.0,14.0,68,30.10,10.0,NNW,3.5,-,N/A,,Clear,340,2013-03-04 02:53:00
10:53 PM,21.9,15.1,75,30.11,10.0,WNW,3.5,-,N/A,,Clear,300,2013-03-04 03:53:00
11:53 PM,19.9,14.0,78,30.12,10.0,West,5.8,-,N/A,,Clear,280,2013-03-04 04:53:00